This is the latest recevied weather packets stored in our database for station/object KE8WAY. If no packets are shown the sender has not sent any weather packets the latest 10 day(s).
| Time | Temp. | Humidity | Pressure | Rain* | Wind** | Luminosity | Snow |
|---|---|---|---|---|---|---|---|
| 1777748390 | 8.33° C | 47% | 1016.7 hPa | 0 mm | - | 511 W/m² | - |
| 1777748086 | 8.33° C | 45% | 1016.9 hPa | 0 mm | - | 284 W/m² | - |
| 1777747783 | 7.78° C | 48% | 1017.1 hPa | 0 mm | - | 191 W/m² | - |
| 1777747478 | 8.33° C | 50% | 1017 hPa | 0 mm | - | 186 W/m² | - |
| 1777747175 | 7.78° C | 46% | 1017 hPa | 0 mm | - | 213 W/m² | - |
| 1777746871 | 7.78° C | 45% | 1016.9 hPa | 0 mm | - | 228 W/m² | - |
| 1777746566 | 8.33° C | 45% | 1017.1 hPa | 0 mm | - | 250 W/m² | - |
| 1777746262 | 7.78° C | 44% | 1017.3 hPa | 0 mm | - | 284 W/m² | - |
| 1777745958 | 7.78° C | 49% | 1016.9 hPa | 0 mm | - | 307 W/m² | - |
| 1777745652 | 8.33° C | 46% | 1017 hPa | 0 mm | - | 271 W/m² | - |
| 1777745350 | 7.78° C | 49% | 1017.2 hPa | 0 mm | - | 231 W/m² | - |
| 1777745046 | 7.78° C | 47% | 1017.2 hPa | 0 mm | - | 246 W/m² | - |
| 1777744742 | 7.78° C | 47% | 1017.1 hPa | 0 mm | - | 262 W/m² | - |
| 1777744436 | 7.78° C | 46% | 1017 hPa | 0 mm | - | 288 W/m² | - |
| 1777744134 | 7.78° C | 47% | 1017.3 hPa | 0 mm | - | 301 W/m² | - |
| 1777743830 | 7.78° C | 49% | 1017.2 hPa | 0 mm | - | 350 W/m² | - |
| 1777743527 | 8.33° C | 50% | 1017.1 hPa | 0 mm | - | 443 W/m² | - |
| 1777743224 | 8.33° C | 50% | 1017.1 hPa | 0 mm | - | 326 W/m² | - |
| 1777742922 | 9.44° C | 48% | 1017.2 hPa | 0 mm | - | 305 W/m² | - |
| 1777742619 | 8.89° C | 48% | 1017.2 hPa | 0 mm | - | 453 W/m² | - |
| 1777742315 | 7.78° C | 53% | 1017.4 hPa | 0 mm | - | 396 W/m² | - |
| 1777742011 | 7.22° C | 53% | 1017.5 hPa | 0 mm | - | 386 W/m² | - |
| 1777741709 | 7.22° C | 53% | 1017.5 hPa | 0 mm | - | 362 W/m² | - |
| 1777741405 | 7.22° C | 55% | 1017.5 hPa | 0 mm | - | 316 W/m² | - |
| 1777741101 | 6.67° C | 57% | 1017.7 hPa | 0 mm | - | 258 W/m² | - |
* Rain latest hour (hover to see other rain measurements)
** Current wind speed in m/s (hover to see current wind gust speed)